owner,sensor,date,latitude,longitude,vertical_datum,sea_water_practical_salinity,qcFlag 
DISL,ioos:station:DISL:DISL:1,2011-07-01T00:00:00Z,30.2513,-88.0778,5.782,19.35,1111122 
DISL,ioos:station:DISL:DISL:1,2011-07-01T00:30:00Z,30.2513,-88.0778,5.725,19.48,1111122 
DISL,ioos:station:DISL:DISL:1,2011-07-01T01:00:00Z,30.2513,-88.0778,5.687,19.51,1111122 
DISL,ioos:station:DISL:DISL:1,2011-07-01T01:30:00Z,30.2513,-88.0778,5.644,19.48,1111122 
DISL,ioos:station:DISL:DISL:1,2011-07-01T02:00:00Z,30.2513,-88.0778,5.61,19.5,1111122 
DISL,ioos:station:DISL:DISL:1,2011-07-01T02:30:00Z,30.2513,-88.0778,5.617,19.47,1111122 
DISL,ioos:station:DISL:DISL:1,2011-07-01T03:00:00Z,30.2513,-88.0778,5.621,19.31,1111122 
DISL,ioos:station:DISL:DISL:1,2011-07-01T03:30:00Z,30.2513,-88.0778,5.566,19.24,1111122 
DISL,ioos:station:DISL:DISL:1,2011-07-01T04:00:00Z,30.2513,-88.0778,5.606,19.24,1111122 
DISL,ioos:station:DISL:DISL:1,2011-07-01T04:30:00Z,30.2513,-88.0778,5.644,19.28,1111122 
DISL,ioos:station:DISL:DISL:1,2011-07-01T05:00:00Z,30.2513,-88.0778,5.716,19.23,1111122 
DISL,ioos:station:DISL:DISL:1,2011-07-01T05:30:00Z,30.2513,-88.0778,5.711,19.23,1111122 
DISL,ioos:station:DISL:DISL:1,2011-07-01T06:00:00Z,30.2513,-88.0778,5.884,19.37,1111122 
DISL,ioos:station:DISL:DISL:1,2011-07-01T06:30:00Z,30.2513,-88.0778,5.89,19.33,1111122 
DISL,ioos:station:DISL:DISL:1,2011-07-01T07:00:00Z,30.2513,-88.0778,5.966,19.36,1111122 
DISL,ioos:station:DISL:DISL:1,2011-07-01T07:30:00Z,30.2513,-88.0778,5.97,19.43,1111122 
DISL,ioos:station:DISL:DISL:1,2011-07-01T08:00:00Z,30.2513,-88.0778,5.948,19.42,1111122 
DISL,ioos:station:DISL:DISL:1,2011-07-01T08:30:00Z,30.2513,-88.0778,6.086,19.47,1111122 
DISL,ioos:station:DISL:DISL:1,2011-07-01T09:00:00Z,30.2513,-88.0778,6.263,19.59,1111122 
DISL,ioos:station:DISL:DISL:1,2011-07-01T09:30:00Z,30.2513,-88.0778,6.333,19.73,1111122 
DISL,ioos:station:DISL:DISL:1,2011-07-01T10:00:00Z,30.2513,-88.0778,6.336,19.78,1111122 
DISL,ioos:station:DISL:DISL:1,2011-07-01T10:30:00Z,30.2513,-88.0778,6.419,19.86,1111122 
DISL,ioos:station:DISL:DISL:1,2011-07-01T11:00:00Z,30.2513,-88.0778,6.581,20.08,1111122 
DISL,ioos:station:DISL:DISL:1,2011-07-01T11:30:00Z,30.2513,-88.0778,6.606,22.63,1111122 
DISL,ioos:station:DISL:DISL:1,2011-07-01T12:00:00Z,30.2513,-88.0778,6.846,21.25,1111122 
DISL,ioos:station:DISL:DISL:1,2011-07-01T12:30:00Z,30.2513,-88.0778,6.962,21.38,1111122 
DISL,ioos:station:DISL:DISL:1,2011-07-01T13:00:00Z,30.2513,-88.0778,6.944,19.99,1111122 
DISL,ioos:station:DISL:DISL:1,2011-07-01T13:30:00Z,30.2513,-88.0778,7.08,19.99,1111122 
DISL,ioos:station:DISL:DISL:1,2011-07-01T14:00:00Z,30.2513,-88.0778,7.18,19.95,1111122 
DISL,ioos:station:DISL:DISL:1,2011-07-01T14:30:00Z,30.2513,-88.0778,7.27,22.14,1111122 
DISL,ioos:station:DISL:DISL:1,2011-07-01T15:00:00Z,30.2513,-88.0778,7.29,22.17,1111122 
DISL,ioos:station:DISL:DISL:1,2011-07-01T15:30:00Z,30.2513,-88.0778,7.26,22.34,1111122 
DISL,ioos:station:DISL:DISL:1,2011-07-01T16:00:00Z,30.2513,-88.0778,7.29,21.82,1111122 
DISL,ioos:station:DISL:DISL:1,2011-07-01T16:30:00Z,30.2513,-88.0778,7.29,22.15,1111122 
DISL,ioos:station:DISL:DISL:1,2011-07-01T17:00:00Z,30.2513,-88.0778,7.25,20.46,1111122 
DISL,ioos:station:DISL:DISL:1,2011-07-01T17:30:00Z,30.2513,-88.0778,7.13,19.94,1111122 
DISL,ioos:station:DISL:DISL:1,2011-07-01T18:00:00Z,30.2513,-88.0778,7.18,19.93,1111122 
DISL,ioos:station:DISL:DISL:1,2011-07-01T18:30:00Z,30.2513,-88.0778,7.09,19.93,1111122 
DISL,ioos:station:DISL:DISL:1,2011-07-01T19:00:00Z,30.2513,-88.0778,6.946,19.93,1111122 
DISL,ioos:station:DISL:DISL:1,2011-07-01T19:30:00Z,30.2513,-88.0778,6.823,19.94,1111122 
DISL,ioos:station:DISL:DISL:1,2011-07-01T20:00:00Z,30.2513,-88.0778,6.759,19.93,1111122 
DISL,ioos:station:DISL:DISL:1,2011-07-01T20:30:00Z,30.2513,-88.0778,6.61,19.93,1111122 
DISL,ioos:station:DISL:DISL:1,2011-07-01T21:00:00Z,30.2513,-88.0778,6.395,19.92,1111122 
DISL,ioos:station:DISL:DISL:1,2011-07-01T21:30:00Z,30.2513,-88.0778,6.249,19.93,1111122 
DISL,ioos:station:DISL:DISL:1,2011-07-01T22:00:00Z,30.2513,-88.0778,6.155,19.9,1111122 
DISL,ioos:station:DISL:DISL:1,2011-07-01T22:30:00Z,30.2513,-88.0778,6.019,18.97,1111122 
DISL,ioos:station:DISL:DISL:1,2011-07-01T23:00:00Z,30.2513,-88.0778,5.973,18.73,1111122 
DISL,ioos:station:DISL:DISL:1,2011-07-01T23:30:00Z,30.2513,-88.0778,5.94,19.18,1111122 
DISL,ioos:station:DISL:DISL:1,2011-07-02T00:00:00Z,30.2513,-88.0778,5.933,20.24,1111122 
DISL,ioos:station:DISL:DISL:1,2011-07-02T00:30:00Z,30.2513,-88.0778,5.898,21.39,1111122 
DISL,ioos:station:DISL:DISL:1,2011-07-02T01:00:00Z,30.2513,-88.0778,5.759,21.23,1111122 
DISL,ioos:station:DISL:DISL:1,2011-07-02T01:30:00Z,30.2513,-88.0778,5.749,21.49,1111122 
DISL,ioos:station:DISL:DISL:1,2011-07-02T02:00:00Z,30.2513,-88.0778,5.663,21.0,1111122 
DISL,ioos:station:DISL:DISL:1,2011-07-02T02:30:00Z,30.2513,-88.0778,5.684,20.85,1111122 
DISL,ioos:station:DISL:DISL:1,2011-07-02T03:00:00Z,30.2513,-88.0778,5.643,20.61,1111122 
DISL,ioos:station:DISL:DISL:1,2011-07-02T03:30:00Z,30.2513,-88.0778,5.579,20.51,1111122 
DISL,ioos:station:DISL:DISL:1,2011-07-02T04:00:00Z,30.2513,-88.0778,5.66,20.45,1111122 
DISL,ioos:station:DISL:DISL:1,2011-07-02T04:30:00Z,30.2513,-88.0778,5.617,20.41,1111122 
DISL,ioos:station:DISL:DISL:1,2011-07-02T05:00:00Z,30.2513,-88.0778,5.682,20.73,1111122 
DISL,ioos:station:DISL:DISL:1,2011-07-02T05:30:00Z,30.2513,-88.0778,5.654,20.81,1111122 
DISL,ioos:station:DISL:DISL:1,2011-07-02T06:00:00Z,30.2513,-88.0778,5.717,20.67,1111122 
DISL,ioos:station:DISL:DISL:1,2011-07-02T06:30:00Z,30.2513,-88.0778,5.725,20.69,1111122 
DISL,ioos:station:DISL:DISL:1,2011-07-02T07:00:00Z,30.2513,-88.0778,5.84,20.76,1111122 
DISL,ioos:station:DISL:DISL:1,2011-07-02T07:30:00Z,30.2513,-88.0778,5.855,20.65,1111122 
DISL,ioos:station:DISL:DISL:1,2011-07-02T08:00:00Z,30.2513,-88.0778,5.948,20.4,1111122 
DISL,ioos:station:DISL:DISL:1,2011-07-02T08:30:00Z,30.2513,-88.0778,6.006,20.03,1111122 
DISL,ioos:station:DISL:DISL:1,2011-07-02T09:00:00Z,30.2513,-88.0778,6.099,20.05,1111122 
DISL,ioos:station:DISL:DISL:1,2011-07-02T09:30:00Z,30.2513,-88.0778,6.163,20.05,1111122 
DISL,ioos:station:DISL:DISL:1,2011-07-02T10:00:00Z,30.2513,-88.0778,6.246,20.04,1111122 
DISL,ioos:station:DISL:DISL:1,2011-07-02T10:30:00Z,30.2513,-88.0778,6.298,19.99,1111122 
DISL,ioos:station:DISL:DISL:1,2011-07-02T11:00:00Z,30.2513,-88.0778,6.42,19.97,1111122 
DISL,ioos:station:DISL:DISL:1,2011-07-02T11:30:00Z,30.2513,-88.0778,6.561,19.94,1111122 
DISL,ioos:station:DISL:DISL:1,2011-07-02T12:00:00Z,30.2513,-88.0778,6.657,21.48,1111122 
DISL,ioos:station:DISL:DISL:1,2011-07-02T12:30:00Z,30.2513,-88.0778,6.809,22.56,1111122 
DISL,ioos:station:DISL:DISL:1,2011-07-02T13:00:00Z,30.2513,-88.0778,6.82,23.18,1111122 
DISL,ioos:station:DISL:DISL:1,2011-07-02T13:30:00Z,30.2513,-88.0778,6.883,22.9,1111122 
DISL,ioos:station:DISL:DISL:1,2011-07-02T14:00:00Z,30.2513,-88.0778,7.06,23.49,1111122 
DISL,ioos:station:DISL:DISL:1,2011-07-02T14:30:00Z,30.2513,-88.0778,7.05,22.45,1111122 
DISL,ioos:station:DISL:DISL:1,2011-07-02T15:00:00Z,30.2513,-88.0778,6.996,22.53,1111122 
DISL,ioos:station:DISL:DISL:1,2011-07-02T15:30:00Z,30.2513,-88.0778,7.13,22.01,1111122 
DISL,ioos:station:DISL:DISL:1,2011-07-02T16:00:00Z,30.2513,-88.0778,7.09,21.86,1111122 
DISL,ioos:station:DISL:DISL:1,2011-07-02T16:30:00Z,30.2513,-88.0778,7.16,22.27,1111122 
DISL,ioos:station:DISL:DISL:1,2011-07-02T17:00:00Z,30.2513,-88.0778,7.11,21.69,1111122 
DISL,ioos:station:DISL:DISL:1,2011-07-02T17:30:00Z,30.2513,-88.0778,7.11,21.28,1111122 
DISL,ioos:station:DISL:DISL:1,2011-07-02T18:00:00Z,30.2513,-88.0778,7.12,20.94,1111122 
DISL,ioos:station:DISL:DISL:1,2011-07-02T18:30:00Z,30.2513,-88.0778,7.04,20.31,1111122 
DISL,ioos:station:DISL:DISL:1,2011-07-02T19:00:00Z,30.2513,-88.0778,6.936,19.9,1111122 
DISL,ioos:station:DISL:DISL:1,2011-07-02T19:30:00Z,30.2513,-88.0778,6.854,19.75,1111122 
DISL,ioos:station:DISL:DISL:1,2011-07-02T20:00:00Z,30.2513,-88.0778,6.788,19.76,1111122 
DISL,ioos:station:DISL:DISL:1,2011-07-02T20:30:00Z,30.2513,-88.0778,6.698,19.77,1111122 
DISL,ioos:station:DISL:DISL:1,2011-07-02T21:00:00Z,30.2513,-88.0778,6.672,19.79,1111122 
DISL,ioos:station:DISL:DISL:1,2011-07-02T21:30:00Z,30.2513,-88.0778,6.565,19.79,1111122 
DISL,ioos:station:DISL:DISL:1,2011-07-02T22:00:00Z,30.2513,-88.0778,6.398,19.8,1111122 
DISL,ioos:station:DISL:DISL:1,2011-07-02T22:30:00Z,30.2513,-88.0778,6.228,20.45,1111122 
DISL,ioos:station:DISL:DISL:1,2011-07-02T23:00:00Z,30.2513,-88.0778,6.208,20.51,1111122 
DISL,ioos:station:DISL:DISL:1,2011-07-02T23:30:00Z,30.2513,-88.0778,6.168,20.6,1111122 
DISL,ioos:station:DISL:DISL:1,2011-07-03T00:00:00Z,30.2513,-88.0778,5.953,20.74,1111122 
DISL,ioos:station:DISL:DISL:1,2011-07-03T00:30:00Z,30.2513,-88.0778,5.912,20.77,1111122 
DISL,ioos:station:DISL:DISL:1,2011-07-03T01:00:00Z,30.2513,-88.0778,5.815,20.88,1111122 
DISL,ioos:station:DISL:DISL:1,2011-07-03T01:30:00Z,30.2513,-88.0778,5.779,20.95,1111122 
DISL,ioos:station:DISL:DISL:1,2011-07-03T02:00:00Z,30.2513,-88.0778,5.689,21.02,1111122 
DISL,ioos:station:DISL:DISL:1,2011-07-03T02:30:00Z,30.2513,-88.0778,5.707,21.09,1111122 
DISL,ioos:station:DISL:DISL:1,2011-07-03T03:00:00Z,30.2513,-88.0778,5.671,21.32,1111122 
DISL,ioos:station:DISL:DISL:1,2011-07-03T03:30:00Z,30.2513,-88.0778,5.628,21.61,1111122 
DISL,ioos:station:DISL:DISL:1,2011-07-03T04:00:00Z,30.2513,-88.0778,5.612,21.51,1111122 
DISL,ioos:station:DISL:DISL:1,2011-07-03T04:30:00Z,30.2513,-88.0778,5.663,21.31,1111122 
DISL,ioos:station:DISL:DISL:1,2011-07-03T05:00:00Z,30.2513,-88.0778,5.61,21.15,1111122 
DISL,ioos:station:DISL:DISL:1,2011-07-03T05:30:00Z,30.2513,-88.0778,5.743,21.41,1111122 
DISL,ioos:station:DISL:DISL:1,2011-07-03T06:00:00Z,30.2513,-88.0778,5.703,21.55,1111122 
DISL,ioos:station:DISL:DISL:1,2011-07-03T06:30:00Z,30.2513,-88.0778,5.721,21.5,1111122 
DISL,ioos:station:DISL:DISL:1,2011-07-03T07:00:00Z,30.2513,-88.0778,5.809,21.97,1111122 
DISL,ioos:station:DISL:DISL:1,2011-07-03T07:30:00Z,30.2513,-88.0778,5.885,21.54,1111122 
DISL,ioos:station:DISL:DISL:1,2011-07-03T08:00:00Z,30.2513,-88.0778,5.899,21.37,1111122 
DISL,ioos:station:DISL:DISL:1,2011-07-03T08:30:00Z,30.2513,-88.0778,5.97,21.3,1111122 
DISL,ioos:station:DISL:DISL:1,2011-07-03T09:00:00Z,30.2513,-88.0778,6.033,21.15,1111122 
DISL,ioos:station:DISL:DISL:1,2011-07-03T09:30:00Z,30.2513,-88.0778,6.138,20.87,1111122 
DISL,ioos:station:DISL:DISL:1,2011-07-03T10:00:00Z,30.2513,-88.0778,6.228,20.85,1111122 
DISL,ioos:station:DISL:DISL:1,2011-07-03T10:30:00Z,30.2513,-88.0778,6.342,20.8,1111122 
DISL,ioos:station:DISL:DISL:1,2011-07-03T11:00:00Z,30.2513,-88.0778,6.404,21.87,1111122 
DISL,ioos:station:DISL:DISL:1,2011-07-03T11:30:00Z,30.2513,-88.0778,6.48,22.08,1111122 
DISL,ioos:station:DISL:DISL:1,2011-07-03T12:00:00Z,30.2513,-88.0778,6.725,23.05,1111122 
DISL,ioos:station:DISL:DISL:1,2011-07-03T12:30:00Z,30.2513,-88.0778,6.7,24.25,1111122 
DISL,ioos:station:DISL:DISL:1,2011-07-03T13:00:00Z,30.2513,-88.0778,6.782,25.28,1111122 
DISL,ioos:station:DISL:DISL:1,2011-07-03T13:30:00Z,30.2513,-88.0778,6.895,25.28,1111122 
DISL,ioos:station:DISL:DISL:1,2011-07-03T14:00:00Z,30.2513,-88.0778,6.849,25.37,1111122 
DISL,ioos:station:DISL:DISL:1,2011-07-03T14:30:00Z,30.2513,-88.0778,7.05,24.99,1111122 
DISL,ioos:station:DISL:DISL:1,2011-07-03T15:00:00Z,30.2513,-88.0778,7.11,25.16,1111122 
DISL,ioos:station:DISL:DISL:1,2011-07-03T15:30:00Z,30.2513,-88.0778,7.02,24.49,1111122 
DISL,ioos:station:DISL:DISL:1,2011-07-03T16:00:00Z,30.2513,-88.0778,7.21,22.36,1111122 
DISL,ioos:station:DISL:DISL:1,2011-07-03T16:30:00Z,30.2513,-88.0778,7.27,22.23,1111122 
DISL,ioos:station:DISL:DISL:1,2011-07-03T17:00:00Z,30.2513,-88.0778,7.23,22.77,1111122 
DISL,ioos:station:DISL:DISL:1,2011-07-03T17:30:00Z,30.2513,-88.0778,7.3,22.81,1111122 
DISL,ioos:station:DISL:DISL:1,2011-07-03T18:00:00Z,30.2513,-88.0778,7.3,22.56,1111122 
DISL,ioos:station:DISL:DISL:1,2011-07-03T18:30:00Z,30.2513,-88.0778,7.32,21.64,1111122 
DISL,ioos:station:DISL:DISL:1,2011-07-03T19:00:00Z,30.2513,-88.0778,7.28,21.14,1111122 
DISL,ioos:station:DISL:DISL:1,2011-07-03T19:30:00Z,30.2513,-88.0778,7.16,21.13,1111122 
DISL,ioos:station:DISL:DISL:1,2011-07-03T20:00:00Z,30.2513,-88.0778,6.709,20.46,1111122 
DISL,ioos:station:DISL:DISL:1,2011-07-03T20:30:00Z,30.2513,-88.0778,6.979,20.78,1111122 
DISL,ioos:station:DISL:DISL:1,2011-07-03T21:00:00Z,30.2513,-88.0778,6.959,20.65,1111122 
DISL,ioos:station:DISL:DISL:1,2011-07-03T21:30:00Z,30.2513,-88.0778,6.706,20.33,1111122 
DISL,ioos:station:DISL:DISL:1,2011-07-03T22:00:00Z,30.2513,-88.0778,6.635,20.1,1111122 
DISL,ioos:station:DISL:DISL:1,2011-07-03T22:30:00Z,30.2513,-88.0778,6.443,21.14,1111122 
DISL,ioos:station:DISL:DISL:1,2011-07-03T23:00:00Z,30.2513,-88.0778,6.366,21.27,1111122 
DISL,ioos:station:DISL:DISL:1,2011-07-03T23:30:00Z,30.2513,-88.0778,6.316,21.27,1111122 
DISL,ioos:station:DISL:DISL:1,2011-07-04T00:00:00Z,30.2513,-88.0778,6.18,21.48,1111122 
DISL,ioos:station:DISL:DISL:1,2011-07-04T00:30:00Z,30.2513,-88.0778,6.19,21.62,1111122 
DISL,ioos:station:DISL:DISL:1,2011-07-04T01:00:00Z,30.2513,-88.0778,6.215,21.79,1111122 
DISL,ioos:station:DISL:DISL:1,2011-07-04T01:30:00Z,30.2513,-88.0778,6.093,21.88,1111122 
DISL,ioos:station:DISL:DISL:1,2011-07-04T02:00:00Z,30.2513,-88.0778,6.082,21.69,1111122 
DISL,ioos:station:DISL:DISL:1,2011-07-04T02:30:00Z,30.2513,-88.0778,6.044,21.62,1111122 
DISL,ioos:station:DISL:DISL:1,2011-07-04T03:00:00Z,30.2513,-88.0778,5.935,21.62,1111122 
DISL,ioos:station:DISL:DISL:1,2011-07-04T03:30:00Z,30.2513,-88.0778,5.931,21.6,1111122 
DISL,ioos:station:DISL:DISL:1,2011-07-04T04:00:00Z,30.2513,-88.0778,5.96,21.6,1111122 
DISL,ioos:station:DISL:DISL:1,2011-07-04T04:30:00Z,30.2513,-88.0778,5.853,21.55,1111122 
DISL,ioos:station:DISL:DISL:1,2011-07-04T05:00:00Z,30.2513,-88.0778,5.945,21.38,1111122 
DISL,ioos:station:DISL:DISL:1,2011-07-04T05:30:00Z,30.2513,-88.0778,5.912,21.36,1111122 
DISL,ioos:station:DISL:DISL:1,2011-07-04T06:00:00Z,30.2513,-88.0778,5.981,21.5,1111122 
DISL,ioos:station:DISL:DISL:1,2011-07-04T06:30:00Z,30.2513,-88.0778,5.967,22.9,1111122 
DISL,ioos:station:DISL:DISL:1,2011-07-04T07:00:00Z,30.2513,-88.0778,6.011,23.29,1111122 
DISL,ioos:station:DISL:DISL:1,2011-07-04T07:30:00Z,30.2513,-88.0778,6.042,23.19,1111122 
DISL,ioos:station:DISL:DISL:1,2011-07-04T08:00:00Z,30.2513,-88.0778,6.076,23.24,1111122 
DISL,ioos:station:DISL:DISL:1,2011-07-04T08:30:00Z,30.2513,-88.0778,6.141,23.24,1111122 
DISL,ioos:station:DISL:DISL:1,2011-07-04T09:00:00Z,30.2513,-88.0778,6.189,22.48,1111122 
DISL,ioos:station:DISL:DISL:1,2011-07-04T09:30:00Z,30.2513,-88.0778,6.249,21.58,1111122 
DISL,ioos:station:DISL:DISL:1,2011-07-04T10:00:00Z,30.2513,-88.0778,6.326,21.36,1111122 
DISL,ioos:station:DISL:DISL:1,2011-07-04T10:30:00Z,30.2513,-88.0778,6.346,21.3,1111122 
DISL,ioos:station:DISL:DISL:1,2011-07-04T11:00:00Z,30.2513,-88.0778,6.513,21.29,1111122 
DISL,ioos:station:DISL:DISL:1,2011-07-04T11:30:00Z,30.2513,-88.0778,6.525,22.09,1111122 
DISL,ioos:station:DISL:DISL:1,2011-07-04T12:00:00Z,30.2513,-88.0778,6.686,23.29,1111122 
DISL,ioos:station:DISL:DISL:1,2011-07-04T12:30:00Z,30.2513,-88.0778,6.74,25.26,1111122 
DISL,ioos:station:DISL:DISL:1,2011-07-04T13:00:00Z,30.2513,-88.0778,6.815,25.58,1111122 
DISL,ioos:station:DISL:DISL:1,2011-07-04T13:30:00Z,30.2513,-88.0778,6.876,25.61,1111122 
DISL,ioos:station:DISL:DISL:1,2011-07-04T14:00:00Z,30.2513,-88.0778,6.997,25.04,1111122 
DISL,ioos:station:DISL:DISL:1,2011-07-04T14:30:00Z,30.2513,-88.0778,7.03,25.84,1111122 
DISL,ioos:station:DISL:DISL:1,2011-07-04T15:00:00Z,30.2513,-88.0778,7.12,24.28,1111122 
DISL,ioos:station:DISL:DISL:1,2011-07-04T15:30:00Z,30.2513,-88.0778,7.08,23.92,1111122 
DISL,ioos:station:DISL:DISL:1,2011-07-04T16:00:00Z,30.2513,-88.0778,6.934,24.81,1111122 
DISL,ioos:station:DISL:DISL:1,2011-07-04T16:30:00Z,30.2513,-88.0778,7.21,22.91,1111122 
DISL,ioos:station:DISL:DISL:1,2011-07-04T17:00:00Z,30.2513,-88.0778,7.21,24.07,1111122 
DISL,ioos:station:DISL:DISL:1,2011-07-04T17:30:00Z,30.2513,-88.0778,7.21,22.85,1111122 
DISL,ioos:station:DISL:DISL:1,2011-07-04T18:00:00Z,30.2513,-88.0778,7.25,22.11,1111122 
DISL,ioos:station:DISL:DISL:1,2011-07-04T18:30:00Z,30.2513,-88.0778,7.17,20.69,1111122 
DISL,ioos:station:DISL:DISL:1,2011-07-04T19:00:00Z,30.2513,-88.0778,7.16,20.78,1111122 
DISL,ioos:station:DISL:DISL:1,2011-07-04T19:30:00Z,30.2513,-88.0778,7.16,20.59,1111122 
DISL,ioos:station:DISL:DISL:1,2011-07-04T20:00:00Z,30.2513,-88.0778,7.03,20.96,1111122 
DISL,ioos:station:DISL:DISL:1,2011-07-04T20:30:00Z,30.2513,-88.0778,6.956,20.74,1111122 
DISL,ioos:station:DISL:DISL:1,2011-07-04T21:00:00Z,30.2513,-88.0778,6.922,20.9,1111122 
DISL,ioos:station:DISL:DISL:1,2011-07-04T21:30:00Z,30.2513,-88.0778,6.831,20.78,1111122 
DISL,ioos:station:DISL:DISL:1,2011-07-04T22:00:00Z,30.2513,-88.0778,6.721,20.77,1111122 
DISL,ioos:station:DISL:DISL:1,2011-07-04T22:30:00Z,30.2513,-88.0778,6.769,21.24,1111122 
DISL,ioos:station:DISL:DISL:1,2011-07-04T23:00:00Z,30.2513,-88.0778,6.564,21.63,1111122 
DISL,ioos:station:DISL:DISL:1,2011-07-04T23:30:00Z,30.2513,-88.0778,6.388,21.82,1111122 
DISL,ioos:station:DISL:DISL:1,2011-07-05T00:00:00Z,30.2513,-88.0778,6.412,21.75,1111122 
DISL,ioos:station:DISL:DISL:1,2011-07-05T00:30:00Z,30.2513,-88.0778,6.286,21.75,1111122 
DISL,ioos:station:DISL:DISL:1,2011-07-05T01:00:00Z,30.2513,-88.0778,6.267,21.92,1111122 
DISL,ioos:station:DISL:DISL:1,2011-07-05T01:30:00Z,30.2513,-88.0778,6.316,21.89,1111122 
DISL,ioos:station:DISL:DISL:1,2011-07-05T02:00:00Z,30.2513,-88.0778,6.222,21.74,1111122 
DISL,ioos:station:DISL:DISL:1,2011-07-05T02:30:00Z,30.2513,-88.0778,6.112,21.63,1111122 
DISL,ioos:station:DISL:DISL:1,2011-07-05T03:00:00Z,30.2513,-88.0778,6.117,22.32,1111122 
DISL,ioos:station:DISL:DISL:1,2011-07-05T03:30:00Z,30.2513,-88.0778,6.067,21.89,1111122 
DISL,ioos:station:DISL:DISL:1,2011-07-05T04:00:00Z,30.2513,-88.0778,6.0,21.82,1111122 
DISL,ioos:station:DISL:DISL:1,2011-07-05T04:30:00Z,30.2513,-88.0778,6.054,21.98,1111122 
DISL,ioos:station:DISL:DISL:1,2011-07-05T05:00:00Z,30.2513,-88.0778,6.048,22.03,1111122 
DISL,ioos:station:DISL:DISL:1,2011-07-05T05:30:00Z,30.2513,-88.0778,6.082,22.09,1111122 
DISL,ioos:station:DISL:DISL:1,2011-07-05T06:00:00Z,30.2513,-88.0778,6.101,22.41,1111122 
DISL,ioos:station:DISL:DISL:1,2011-07-05T06:30:00Z,30.2513,-88.0778,6.091,22.82,1111122 
DISL,ioos:station:DISL:DISL:1,2011-07-05T07:00:00Z,30.2513,-88.0778,6.181,22.65,1111122 
DISL,ioos:station:DISL:DISL:1,2011-07-05T07:30:00Z,30.2513,-88.0778,6.205,22.82,1111122 
DISL,ioos:station:DISL:DISL:1,2011-07-05T08:00:00Z,30.2513,-88.0778,6.256,23.18,1111122 
DISL,ioos:station:DISL:DISL:1,2011-07-05T08:30:00Z,30.2513,-88.0778,6.332,22.86,1111122 
DISL,ioos:station:DISL:DISL:1,2011-07-05T09:00:00Z,30.2513,-88.0778,6.355,22.21,1111122 
DISL,ioos:station:DISL:DISL:1,2011-07-05T09:30:00Z,30.2513,-88.0778,6.346,22.05,1111122 
DISL,ioos:station:DISL:DISL:1,2011-07-05T10:00:00Z,30.2513,-88.0778,6.43,21.7,1111122 
DISL,ioos:station:DISL:DISL:1,2011-07-05T10:30:00Z,30.2513,-88.0778,6.489,21.61,1111122 
DISL,ioos:station:DISL:DISL:1,2011-07-05T11:00:00Z,30.2513,-88.0778,6.484,21.62,1111122 
DISL,ioos:station:DISL:DISL:1,2011-07-05T11:30:00Z,30.2513,-88.0778,6.575,21.46,1111122 
DISL,ioos:station:DISL:DISL:1,2011-07-05T12:00:00Z,30.2513,-88.0778,6.667,21.28,1111122 
DISL,ioos:station:DISL:DISL:1,2011-07-05T12:30:00Z,30.2513,-88.0778,6.69,22.13,1111122 
DISL,ioos:station:DISL:DISL:1,2011-07-05T13:00:00Z,30.2513,-88.0778,6.744,24.39,1111122 
DISL,ioos:station:DISL:DISL:1,2011-07-05T13:30:00Z,30.2513,-88.0778,6.809,25.04,1111122 
DISL,ioos:station:DISL:DISL:1,2011-07-05T14:00:00Z,30.2513,-88.0778,6.767,25.68,1111122 
DISL,ioos:station:DISL:DISL:1,2011-07-05T14:30:00Z,30.2513,-88.0778,6.952,25.72,1111122 
DISL,ioos:station:DISL:DISL:1,2011-07-05T15:00:00Z,30.2513,-88.0778,6.926,25.99,1111122 
DISL,ioos:station:DISL:DISL:1,2011-07-05T15:30:00Z,30.2513,-88.0778,6.944,26.53,1111122 
DISL,ioos:station:DISL:DISL:1,2011-07-05T16:00:00Z,30.2513,-88.0778,7.01,26.58,1111122 
DISL,ioos:station:DISL:DISL:1,2011-07-05T16:30:00Z,30.2513,-88.0778,7.03,25.56,1111122 
DISL,ioos:station:DISL:DISL:1,2011-07-05T17:00:00Z,30.2513,-88.0778,7.03,26.01,1111122 
DISL,ioos:station:DISL:DISL:1,2011-07-05T17:30:00Z,30.2513,-88.0778,7.07,25.54,1111122 
DISL,ioos:station:DISL:DISL:1,2011-07-05T18:00:00Z,30.2513,-88.0778,7.1,25.29,1111122 
DISL,ioos:station:DISL:DISL:1,2011-07-05T18:30:00Z,30.2513,-88.0778,7.08,25.53,1111122 
DISL,ioos:station:DISL:DISL:1,2011-07-05T19:00:00Z,30.2513,-88.0778,7.1,25.09,1111122 
DISL,ioos:station:DISL:DISL:1,2011-07-05T19:30:00Z,30.2513,-88.0778,7.13,24.44,1111122 
DISL,ioos:station:DISL:DISL:1,2011-07-05T20:00:00Z,30.2513,-88.0778,7.1,23.78,1111122 
DISL,ioos:station:DISL:DISL:1,2011-07-05T20:30:00Z,30.2513,-88.0778,7.07,22.74,1111122 
DISL,ioos:station:DISL:DISL:1,2011-07-05T21:00:00Z,30.2513,-88.0778,7.16,21.66,1111122 
DISL,ioos:station:DISL:DISL:1,2011-07-05T21:30:00Z,30.2513,-88.0778,7.01,22.06,1111122 
DISL,ioos:station:DISL:DISL:1,2011-07-05T22:00:00Z,30.2513,-88.0778,6.837,21.54,1111122 
DISL,ioos:station:DISL:DISL:1,2011-07-05T22:30:00Z,30.2513,-88.0778,6.818,21.51,1111122 
DISL,ioos:station:DISL:DISL:1,2011-07-05T23:00:00Z,30.2513,-88.0778,6.823,21.08,1111122 
DISL,ioos:station:DISL:DISL:1,2011-07-05T23:30:00Z,30.2513,-88.0778,6.698,20.84,1111122 
DISL,ioos:station:DISL:DISL:1,2011-07-06T00:00:00Z,30.2513,-88.0778,6.632,20.77,1111122 
DISL,ioos:station:DISL:DISL:1,2011-07-06T00:30:00Z,30.2513,-88.0778,6.874,20.78,1111122 
DISL,ioos:station:DISL:DISL:1,2011-07-06T01:00:00Z,30.2513,-88.0778,6.711,21.31,1111122 
DISL,ioos:station:DISL:DISL:1,2011-07-06T01:30:00Z,30.2513,-88.0778,6.541,21.42,1111122 
DISL,ioos:station:DISL:DISL:1,2011-07-06T02:00:00Z,30.2513,-88.0778,6.474,21.52,1111122 
DISL,ioos:station:DISL:DISL:1,2011-07-06T02:30:00Z,30.2513,-88.0778,6.417,21.62,1111122 
DISL,ioos:station:DISL:DISL:1,2011-07-06T03:00:00Z,30.2513,-88.0778,6.319,21.54,1111122 
DISL,ioos:station:DISL:DISL:1,2011-07-06T03:30:00Z,30.2513,-88.0778,6.309,21.47,1111122 
DISL,ioos:station:DISL:DISL:1,2011-07-06T04:00:00Z,30.2513,-88.0778,6.325,21.44,1111122 
DISL,ioos:station:DISL:DISL:1,2011-07-06T04:30:00Z,30.2513,-88.0778,6.285,21.36,1111122 
DISL,ioos:station:DISL:DISL:1,2011-07-06T05:00:00Z,30.2513,-88.0778,6.351,21.19,1111122 
DISL,ioos:station:DISL:DISL:1,2011-07-06T05:30:00Z,30.2513,-88.0778,6.416,21.79,1111122 
DISL,ioos:station:DISL:DISL:1,2011-07-06T06:00:00Z,30.2513,-88.0778,6.467,23.64,1111122 
DISL,ioos:station:DISL:DISL:1,2011-07-06T06:30:00Z,30.2513,-88.0778,6.468,23.78,1111122 
DISL,ioos:station:DISL:DISL:1,2011-07-06T07:00:00Z,30.2513,-88.0778,6.48,22.56,1111122 
DISL,ioos:station:DISL:DISL:1,2011-07-06T07:30:00Z,30.2513,-88.0778,6.475,21.76,1111122 
DISL,ioos:station:DISL:DISL:1,2011-07-06T08:00:00Z,30.2513,-88.0778,6.522,21.4,1111122 
DISL,ioos:station:DISL:DISL:1,2011-07-06T08:30:00Z,30.2513,-88.0778,6.571,21.38,1111122 
DISL,ioos:station:DISL:DISL:1,2011-07-06T09:00:00Z,30.2513,-88.0778,6.584,22.42,1111122 
DISL,ioos:station:DISL:DISL:1,2011-07-06T09:30:00Z,30.2513,-88.0778,6.638,23.21,1111122 
DISL,ioos:station:DISL:DISL:1,2011-07-06T10:00:00Z,30.2513,-88.0778,6.701,23.3,1111122 
DISL,ioos:station:DISL:DISL:1,2011-07-06T10:30:00Z,30.2513,-88.0778,6.708,21.9,1111122 
DISL,ioos:station:DISL:DISL:1,2011-07-06T11:00:00Z,30.2513,-88.0778,6.63,22.4,1111122 
DISL,ioos:station:DISL:DISL:1,2011-07-06T11:30:00Z,30.2513,-88.0778,6.746,22.67,1111122 
DISL,ioos:station:DISL:DISL:1,2011-07-06T12:00:00Z,30.2513,-88.0778,6.768,22.1,1111122 
DISL,ioos:station:DISL:DISL:1,2011-07-06T12:30:00Z,30.2513,-88.0778,6.773,21.76,1111122 
DISL,ioos:station:DISL:DISL:1,2011-07-06T13:00:00Z,30.2513,-88.0778,6.819,21.55,1111122 
DISL,ioos:station:DISL:DISL:1,2011-07-06T13:30:00Z,30.2513,-88.0778,6.845,21.55,1111122 
DISL,ioos:station:DISL:DISL:1,2011-07-06T14:00:00Z,30.2513,-88.0778,6.82,21.37,1111122 